Weather History for KLGD - March, 2014

Change the Weather History Date:

Tuesday, March 11, 2014

  Actual Average Record
Temperature  
Mean Temperature 42 °F -  
Max Temperature 51 °F 48 °F 69 °F (2005)
Min Temperature 33 °F 30 °F 15 °F (2009)
Degree Days  
Heating Degree Days 23    
Moisture  
Dew Point 26 °F    
Average Humidity 55    
Maximum Humidity 70    
Minimum Humidity 37    
Precipitation  
Precipitation 0.06 in - - ()
Sea Level Pressure  
Sea Level Pressure 30.42 in    
Wind  
Wind Speed 11 mph (NW)    
Max Wind Speed 18 mph    
Max Gust Speed 30 mph    
Visibility 10 miles    
Events      
Averages and records for this station are not official NWS values.
T = Trace of Precipitation, MM = Missing Value Source: NWS Daily Summary

Daily Weather History Graph

Daily Weather History Graph

Search for Another Location

Airport or City:

Trip Planner

Search our weather history database for the weather conditions in past years. The results will help you decide how hot, cold, wet, or windy it might be!

Date:

Astronomy

Mar. 11, 2014 Rise Set
Actual Time 7:11 AM PDT 6:52 PM PDT
Civil Twilight 6:42 AM PDT 7:22 PM PDT
Nautical Twilight 6:08 AM PDT 7:56 PM PDT
Astronomical Twilight 5:33 AM PDT 8:31 PM PDT
Moon 2:23 PM PDT (3/11) 4:18 AM PDT (3/11)
Length of Visible Light 12h 39m
Length of Day
11h 41m
Waxing Gibbous, 79% of the Moon is Illuminated
Mar 11
Waxing Gibbous
Mar 16
Full
Mar 23
Last Quarter
Mar 30
New
Apr 7
First Quarter

Hourly Weather History & Observations

Time (PDT) Temp. Windchill Dew Point Humidity Pressure Visibility Wind Dir Wind Speed Gust Speed Precip Events Conditions
12:15 AM 39.2 °F 30.2 °F 28.4 °F 65% 30.26 in 10.0 mi NW 17.3 mph 20.7 mph N/A   Overcast
12:35 AM 39.2 °F 29.8 °F 28.4 °F 65% 30.26 in 10.0 mi NW 18.4 mph 24.2 mph N/A   Scattered Clouds
12:55 AM 39.2 °F 30.8 °F 26.6 °F 61% 30.28 in 10.0 mi NNW 15.0 mph 19.6 mph N/A   Clear
1:15 AM 39.2 °F 30.5 °F 26.6 °F 61% 30.29 in 10.0 mi NNW 16.1 mph - N/A   Partly Cloudy
1:35 AM 39.2 °F 30.8 °F 26.6 °F 61% 30.31 in 10.0 mi NNW 15.0 mph 29.9 mph N/A   Scattered Clouds
1:55 AM 39.2 °F 31.6 °F 26.6 °F 61% 30.32 in 10.0 mi NNW 12.7 mph 23.0 mph N/A   Scattered Clouds
2:15 AM 37.4 °F 30.3 °F 26.6 °F 65% 30.33 in 10.0 mi NNW 10.4 mph - N/A   Scattered Clouds
2:35 AM 39.2 °F 31.2 °F 26.6 °F 61% 30.34 in 10.0 mi NNW 13.8 mph 19.6 mph N/A   Mostly Cloudy
2:55 AM 37.4 °F 30.3 °F 26.6 °F 65% 30.34 in 10.0 mi NNW 10.4 mph - N/A   Overcast
3:15 AM 37.4 °F 29.3 °F 26.6 °F 65% 30.35 in 10.0 mi NW 12.7 mph 16.1 mph N/A   Overcast
3:35 AM 37.4 °F 28.2 °F 26.6 °F 65% 30.34 in 10.0 mi NW 16.1 mph 20.7 mph N/A   Mostly Cloudy
3:55 AM 37.4 °F 29.3 °F 26.6 °F 65% 30.34 in 10.0 mi NW 12.7 mph - N/A   Overcast
4:15 AM 37.4 °F 28.9 °F 26.6 °F 65% 30.35 in 10.0 mi NW 13.8 mph - N/A   Overcast
4:35 AM 37.4 °F 27.8 °F 26.6 °F 65% 30.36 in 10.0 mi NW 17.3 mph 21.9 mph N/A   Mostly Cloudy
4:55 AM 37.4 °F 29.3 °F 26.6 °F 65% 30.37 in 10.0 mi NW 12.7 mph - N/A   Mostly Cloudy
5:15 AM 37.4 °F 28.9 °F 26.6 °F 65% 30.37 in 10.0 mi NW 13.8 mph - N/A   Partly Cloudy
5:35 AM 35.6 °F 28.6 °F 24.8 °F 65% 30.38 in 10.0 mi WNW 9.2 mph - N/A   Partly Cloudy
5:55 AM 35.6 °F 28.0 °F 24.8 °F 65% 30.39 in 10.0 mi WNW 10.4 mph - N/A   Mostly Cloudy
6:15 AM 37.4 °F 28.9 °F 24.8 °F 60% 30.39 in 10.0 mi WNW 13.8 mph - N/A   Mostly Cloudy
6:35 AM 35.6 °F 27.1 °F 24.8 °F 65% 30.40 in 10.0 mi WNW 12.7 mph - N/A   Mostly Cloudy
6:55 AM 35.6 °F 25.5 °F 24.8 °F 65% 30.41 in 10.0 mi WNW 17.3 mph 21.9 mph N/A   Mostly Cloudy
7:15 AM 35.6 °F 27.1 °F 24.8 °F 65% 30.42 in 10.0 mi WNW 12.7 mph - N/A   Mostly Cloudy
7:35 AM 35.6 °F 28.6 °F 24.8 °F 65% 30.43 in 10.0 mi WNW 9.2 mph - N/A   Mostly Cloudy
7:55 AM 37.4 °F 29.8 °F 24.8 °F 60% 30.44 in 10.0 mi WNW 11.5 mph - N/A   Mostly Cloudy
8:15 AM 37.4 °F 28.5 °F 24.8 °F 60% 30.45 in 10.0 mi WNW 15.0 mph - N/A   Partly Cloudy
8:35 AM 37.4 °F 28.5 °F 24.8 °F 60% 30.46 in 10.0 mi WNW 15.0 mph - N/A   Clear
8:55 AM 39.2 °F 31.2 °F 24.8 °F 56% 30.46 in 10.0 mi NW 13.8 mph - N/A   Clear
9:15 AM 39.2 °F 30.5 °F 26.6 °F 61% 30.46 in 10.0 mi NW 16.1 mph - N/A   Clear
9:35 AM 41.0 °F 32.5 °F 26.6 °F 57% 30.47 in 10.0 mi NW 17.3 mph - N/A   Clear
9:55 AM 41.0 °F 33.5 °F 26.6 °F 57% 30.47 in 10.0 mi NW 13.8 mph - N/A   Clear
10:15 AM 42.8 °F 36.6 °F 26.6 °F 53% 30.48 in 10.0 mi WNW 11.5 mph 17.3 mph N/A   Clear
10:35 AM 42.8 °F 36.2 °F 26.6 °F 53% 30.49 in 10.0 mi NW 12.7 mph - N/A   Clear
10:55 AM 44.6 °F 38.4 °F 26.6 °F 49% 30.49 in 10.0 mi NW 12.7 mph 18.4 mph N/A   Clear
11:15 AM 44.6 °F 38.8 °F 26.6 °F 49% 30.49 in 10.0 mi NNW 11.5 mph - N/A   Clear
11:35 AM 44.6 °F 40.7 °F 28.4 °F 53% 30.48 in 10.0 mi NW 6.9 mph - N/A   Clear
11:55 AM 46.4 °F 42.4 °F 26.6 °F 46% 30.48 in 10.0 mi WNW 8.1 mph - N/A   Clear
12:15 PM 46.4 °F 42.9 °F 26.6 °F 46% 30.48 in 10.0 mi NNW 6.9 mph - N/A   Clear
12:35 PM 44.6 °F 42.2 °F 26.6 °F 49% 30.48 in 10.0 mi North 4.6 mph - N/A   Partly Cloudy
12:55 PM 46.4 °F 42.9 °F 26.6 °F 46% 30.47 in 10.0 mi NNW 6.9 mph - N/A   Partly Cloudy
1:15 PM 46.4 °F 42.9 °F 24.8 °F 43% 30.47 in 10.0 mi North 6.9 mph - N/A   Clear
1:35 PM 48.2 °F - 26.6 °F 43% 30.46 in 10.0 mi NNE 4.6 mph - N/A   Clear
1:55 PM 48.2 °F - 24.8 °F 40% 30.46 in 10.0 mi NNW 6.9 mph - N/A   Clear
2:15 PM 48.2 °F - 24.8 °F 40% 30.46 in 10.0 mi NNW 6.9 mph - N/A   Clear
2:35 PM 48.2 °F - 24.8 °F 40% 30.45 in 10.0 mi NW 5.8 mph - N/A   Clear
2:55 PM 48.2 °F - 24.8 °F 40% 30.45 in 10.0 mi NNW 6.9 mph - N/A   Clear
3:15 PM 51.8 °F - 26.6 °F 38% 30.44 in 10.0 mi West 3.5 mph - N/A   Scattered Clouds
3:35 PM 50.0 °F - 24.8 °F 37% 30.44 in 10.0 mi Calm Calm - N/A   Partly Cloudy
3:55 PM 48.2 °F - 24.8 °F 40% 30.44 in 10.0 mi Calm Calm - N/A   Clear
4:15 PM 50.0 °F - 24.8 °F 37% 30.44 in 10.0 mi NNE 4.6 mph - N/A   Clear
4:35 PM 50.0 °F - 24.8 °F 37% 30.43 in 10.0 mi North 3.5 mph - N/A   Clear
4:55 PM 50.0 °F - 24.8 °F 37% 30.43 in 10.0 mi Calm Calm - N/A   Clear
5:15 PM 48.2 °F - 24.8 °F 40% 30.42 in 10.0 mi Calm Calm - N/A   Clear
5:35 PM 48.2 °F - 24.8 °F 40% 30.42 in 10.0 mi North 5.8 mph - N/A   Clear
5:55 PM 48.2 °F - 24.8 °F 40% 30.41 in 10.0 mi ENE 3.5 mph - N/A   Clear
6:15 PM 48.2 °F - 24.8 °F 40% 30.42 in 10.0 mi NE 3.5 mph - N/A   Clear
6:35 PM 48.2 °F - 24.8 °F 40% 30.41 in 10.0 mi Calm Calm - N/A   Clear
6:55 PM 46.4 °F - 24.8 °F 43% 30.41 in 10.0 mi Calm Calm - N/A   Clear
7:15 PM 44.6 °F 42.2 °F 26.6 °F 49% 30.42 in 10.0 mi WSW 4.6 mph - N/A   Partly Cloudy
7:35 PM 39.2 °F 37.0 °F 26.6 °F 61% 30.42 in 10.0 mi SW 3.5 mph - N/A   Partly Cloudy
7:55 PM 39.2 °F 34.2 °F 24.8 °F 56% 30.42 in 10.0 mi SSW 6.9 mph - N/A   Clear
8:15 PM 39.2 °F 37.0 °F 24.8 °F 56% 30.42 in 10.0 mi SW 3.5 mph - N/A   Clear
8:35 PM 37.4 °F 34.9 °F 24.8 °F 60% 30.42 in 10.0 mi SW 3.5 mph - N/A   Clear
8:55 PM 37.4 °F 33.8 °F 24.8 °F 60% 30.42 in 10.0 mi SSW 4.6 mph - N/A   Clear
9:15 PM 35.6 °F 30.7 °F 24.8 °F 65% 30.43 in 10.0 mi SSW 5.8 mph - N/A   Clear
9:35 PM 35.6 °F 30.7 °F 24.8 °F 65% 30.43 in 10.0 mi South 5.8 mph - N/A   Clear
9:55 PM 35.6 °F 32.8 °F 24.8 °F 65% 30.44 in 10.0 mi South 3.5 mph - N/A   Clear
10:15 PM 35.6 °F - 24.8 °F 65% 30.44 in 10.0 mi Calm Calm - N/A   Clear
10:35 PM 37.4 °F 31.4 °F 24.8 °F 60% 30.45 in 10.0 mi SSW 8.1 mph - N/A   Clear
10:55 PM 35.6 °F 31.7 °F 24.8 °F 65% 30.45 in 10.0 mi South 4.6 mph - N/A   Clear
11:15 PM 33.8 °F 30.8 °F 24.8 °F 70% 30.45 in 10.0 mi South 3.5 mph - N/A   Clear
11:35 PM 35.6 °F 30.7 °F 23.0 °F 60% 30.45 in 10.0 mi South 5.8 mph - N/A   Clear
11:55 PM 33.8 °F - 23.0 °F 65% 30.45 in 10.0 mi Calm Calm - N/A   Clear